Regional Weather Roundup
Issued by NWS

Home | Current Version | Previous Version | Text Only | Print | Product List | Glossary On
Versions: 1 2 3 4 5 6 7 8 9 10 11 12 13 14 15 16 17 18 19 20 21 22 23 24 25 26 27 28 29 30 31 32 33 34 35 36 37 38 39 40 41 42 43 44 45 46 47 48 49 50
000
ASUS43 KDTX 232310
RWRMI
MICHIGAN HOURLY REGIONAL WEATHER ROUNDUP
NATIONAL WEATHER SERVICE DETROIT/PONTIAC MI
700 PM EDT MON APR 23 2018

NOTE: "FAIR" INDICATES FEW OR NO CLOUDS BELOW 12,000 FEET WITH NO
SIGNIFICANT WEATHER AND/OR OBSTRUCTION TO VISIBILITY.

MIZ047>049-052>055-059>063-066>070-074>076-081>083-240000-
SOUTHEAST LOWER MICHIGAN

CITY           SKY/WX    TMP DP  RH WIND       PRES   REMARKS
ADRIAN         CLOUDY    62  42  47 SE8       30.15R
ALMA           FAIR      67  43  41 NE9       30.12F
ANN ARBOR      FAIR      67  42  40 E8        30.12F
BAD AXE        FAIR      67  34  28 E7        30.16S
CARO           FAIR      68  37  32 S9        30.13F
DETROIT CITY   FAIR      66  41  40 E9        30.14F
DETROIT        CLOUDY    69  41  36 E9        30.13F
FLINT          FAIR      67  42  40 SE9       30.13S
GROSSE ILE     FAIR      65  42  43 E7        30.13S
HILLSDALE      CLOUDY    63  45  51 S14G20    30.13R
HOWELL         FAIR      68  38  33 SE10      30.12F

CITY           SKY/WX    TMP DP  RH WIND       PRES   REMARKS
JACKSON        FAIR      67  42  40 E13G21    30.12R
LAMBERTVILLE   PTSUNNY   58  41  53 SE6       30.16R
LANSING        FAIR      70  40  33 SE13      30.11S
LAPEER         FAIR      67  38  34 SE7       30.15S
MASON          FAIR      69  36  29 SE8G16    30.11S
MONROE         PTSUNNY   55  38  52 SE10G17   30.15R
MT. CLEMENS    PTSUNNY   64  46  51 SE6       30.14F
PONTIAC        CLOUDY    68  42  38 SE9       30.13F
PORT HOPE        N/A     46  34  62 SE6       30.16F
PORT HURON     FAIR      68  37  32 SE8       30.15F
TRI CITIES     FAIR      60  38  43 N12       30.14F
MIDLAND        FAIR      65  39  39 E7        30.13F
TROY           FAIR      69  37  31 E9        30.16S
SAGINAW HB     FAIR      61  37  41 N9        30.12F
$$
MIZ043>046-050>051-056>058-064>065-071>073-077>080-240000-
SOUTHWEST LOWER MICHIGAN

CITY           SKY/WX    TMP DP  RH WIND       PRES   REMARKS
BATTLE CREEK   FAIR      70  42  36 SE9       30.09F
BENTON HARBOR  FAIR      55  32  41 VRB5      30.08R
BIG RAPIDS     FAIR      69  27  20 SE7       30.11F
COLDWATER      CLOUDY    64  46  53 S7        30.12R
FREMONT        FAIR      71  17  13 SE6       30.09F
HOLLAND        FAIR      73  40  30 NE8       30.07F
GRAND RAPIDS   PTSUNNY   71  40  32 E9        30.08F
IONIA          FAIR      71  38  30 SE12      30.09S
KALAMAZOO      FAIR      72  40  31 SE9       30.08S
LUDINGTON      FAIR      60  30  33 N9        30.11F
MARSHALL       PTSUNNY   68  42  39 SE9       30.10R
MOUNT PLEASANT FAIR      71  40  33 E8        30.11F
MUSKEGON       PTSUNNY   73  36  25 VRB5      30.09F
SOUTH HAVEN    PTSUNNY   63  33  32 W5        30.07R
$$
MIZ016>042-240000-
NORTHERN LOWER MICHIGAN

CITY           SKY/WX    TMP DP  RH WIND       PRES   REMARKS
ALPENA         FAIR      52  29  41 E10       30.19F
BEAVER ISLAND  FAIR      54  26  33 E6        30.20S
BELLAIRE       FAIR      57  25  28 N7        30.17S
CADILLAC       FAIR      67  29  23 CALM      30.12F
CHARLEVOIX     FAIR      51  27  39 N10       30.21F
FRANKFORT      FAIR      59  27  29 N5        30.15S
GAYLORD        FAIR      62  21  20 N5        30.15F
HARBOR SPRINGS FAIR      58  22  24 N13       30.18S
HOUGHTON LAKE  FAIR      67  31  26 SE8       30.14F
MANISTEE       FAIR      60  30  32 NW7       30.12F
OSCODA         FAIR      51  27  39 NE5       30.18F
PELLSTON       FAIR      56  23  27 NE8       30.20S
ROGERS CITY    FAIR      49  32  52 E6        30.19F
TRAVERSE CITY  PTSUNNY   54  28  36 N9        30.15F
$$
MIZ007>008-015-240000-
EASTERN UPPER MICHIGAN

CITY           SKY/WX    TMP DP  RH WIND       PRES   REMARKS
KINROSS        FAIR      55  22  27 S7        30.20S
MACKINAC ISLAN FAIR      50  25  37 E8        30.20F
NEWBERRY       FAIR      53  19  26 S5        30.17F
S. S. MARIE    FAIR      57  25  29 SE8       30.18F
MUNISING         N/A     48  27  44 CALM      30.14F
$$
MIZ004>006-011>014-085-240000-
CENTRAL UPPER MICHIGAN

CITY           SKY/WX    TMP DP  RH WIND       PRES   REMARKS
MANISTIQUE     FAIR      51  22  32 CALM      30.17F
ESCANABA       FAIR      51  30  44 SE5       30.17F
MENOMINEE      FAIR      60  26  27 SE9       30.16F
SAWYER-GWINN   SUNNY     61  25  25 S13G18    30.14F
$$
MIZ001>003-009>011-084-240000-
WESTERN UPPER MICHIGAN

CITY           SKY/WX    TMP DP  RH WIND       PRES   REMARKS
IRON MOUNTAIN  FAIR      67  19  16 CALM      30.11F
HOUGHTON       FAIR      57  30  35 W9        30.11F
COPPER HARBOR    N/A     51  29  42 S3        30.12S
IRONWOOD       FAIR      63  26  24 W9        30.13
$$

ABBREVIATIONS USED IN REMARKS
   TC - TEMPERATURE IN CELSIUS
  WCI - WIND CHILL INDEX
   HX - HEAT INDEX
  VSB - VISIBILITY




USA.gov is the U.S. government's official web portal to all federal, state and local government web resources and services.